Location: Altmatt
(47.1333°N, 8.7000°E)
Time: 17:35:11
(UTC+00:00)

Cosmos 1500 Rocket - Pass Details

Date: 13 July 2020
Orbit: 603 x 632 km, 82.5° (Epoch: 13 August)

Event Time Altitude Azimuth Distance (km) Brightness Sun altitude
Exits shadow 22:43:44 54° 176° (S) 750 3.6 -20.4°
Maximum altitude 22:44:42 82° 98° (E) 628 3.4 -20.4°
Drops below altitude 10° 22:49:04 10° 11° (N) 1,977 7.1 -20.6°
Sets 22:51:18 0° 11° (N) 2,882 8.2 -20.6°
